QPF
0.12 0.13 0.12 0.12 0.14 0.13 0.10 0.09 0.06 0.04 0.04 0.05 0.08 0.08 0.10 0.10 0.11 0.12 0.13 0.12 0.12 0.12 0.12 0.13 0.11 0.12 0.12 0.11 0.12 0.12 0.09 0.08 0.07 0.06 0.04 0.04 0.03 0.02 0.03 0.04 0.06 0.05 0.03
0.11 0.10 0.11 0.12 0.13 0.12 0.09 0.07 0.06 0.05 0.05 0.06 0.06 0.08 0.09 0.11 0.14 0.17 0.13 0.13 0.14 0.14 0.13 0.12 0.11 0.12 0.12 0.12 0.12 0.11 0.10 0.08 0.08 0.06 0.05 0.03 0.02 0.03 0.03 0.05 0.06 0.05 0.04
0.09 0.08 0.08 0.11 0.11 0.08 0.07 0.08 0.07 0.06 0.07 0.07 0.06 0.06 0.05 0.08 0.11 0.11 0.11 0.14 0.16 0.15 0.15 0.15 0.14 0.13 0.14 0.14 0.13 0.11 0.11 0.10 0.08 0.06 0.07 0.05 0.03 0.02 0.03 0.04 0.04 0.03 0.04
0.08 0.08 0.06 0.08 0.09 0.07 0.05 0.06 0.08 0.10 0.09 0.08 0.08 0.07 0.06 0.07 0.08 0.09 0.12 0.15 0.17 0.17 0.16 0.17 0.17 0.14 0.17 0.16 0.14 0.12 0.10 0.09 0.07 0.10 0.12 0.08 0.05 0.04 0.04 0.04 0.04 0.04 0.05
0.07 0.07 0.07 0.06 0.07 0.07 0.06 0.07 0.08 0.10 0.12 0.13 0.14 0.12 0.12 0.09 0.08 0.09 0.13 0.19 0.22 0.19 0.17 0.17 0.17 0.15 0.16 0.16 0.15 0.13 0.11 0.08 0.08 0.14 0.11 0.08 0.06 0.04 0.04 0.04 0.04 0.05 0.06
0.07 0.07 0.05 0.06 0.07 0.09 0.11 0.10 0.08 0.07 0.09 0.11 0.12 0.13 0.12 0.10 0.08 0.09 0.15 0.18 0.22 0.19 0.17 0.16 0.14 0.18 0.18 0.15 0.13 0.14 0.10 0.08 0.08 0.09 0.08 0.07 0.05 0.04 0.03 0.03 0.03 0.04 0.05
0.09 0.08 0.06 0.05 0.06 0.07 0.08 0.07 0.08 0.09 0.09 0.08 0.07 0.08 0.08 0.09 0.07 0.08 0.13 0.15 0.19 0.22 0.19 0.16 0.14 0.16 0.15 0.14 0.13 0.16 0.12 0.10 0.10 0.09 0.07 0.07 0.05 0.03 0.03 0.02 0.02 0.04 0.04
0.09 0.08 0.06 0.05 0.06 0.06 0.06 0.05 0.07 0.10 0.10 0.09 0.09 0.07 0.07 0.09 0.08 0.10 0.13 0.15 0.14 0.18 0.20 0.16 0.13 0.11 0.12 0.13 0.13 0.20 0.18 0.11 0.08 0.07 0.06 0.07 0.05 0.03 0.03 0.02 0.03 0.03 0.03
0.09 0.08 0.07 0.07 0.08 0.08 0.07 0.05 0.06 0.08 0.08 0.09 0.08 0.06 0.07 0.08 0.07 0.07 0.09 0.11 0.12 0.12 0.14 0.14 0.15 0.12 0.13 0.14 0.14 0.20 0.18 0.10 0.06 0.07 0.05 0.06 0.06 0.03 0.02 0.02 0.03 0.03 0.04
0.11 0.10 0.09 0.08 0.07 0.08 0.08 0.07 0.08 0.07 0.06 0.08 0.07 0.07 0.07 0.09 0.09 0.07 0.08 0.09 0.12 0.15 0.13 0.12 0.13 0.15 0.20 0.21 0.20 0.17 0.12 0.07 0.04 0.05 0.05 0.05 0.04 0.03 0.02 0.02 0.03 0.03 0.03
0.09 0.10 0.10 0.07 0.06 0.09 0.11 0.11 0.09 0.06 0.06 0.09 0.11 0.12 0.10 0.12 0.13 0.09 0.07 0.09 0.12 0.19 0.17 0.14 0.11 0.16 0.21 0.22 0.21 0.16 0.10 0.06 0.04 0.05 0.05 0.05 0.04 0.03 0.03 0.03 0.03 0.03 0.03
0.08 0.11 0.11 0.09 0.08 0.10 0.11 0.12 0.10 0.07 0.10 0.18 0.24 0.15 0.13 0.14 0.11 0.08 0.07 0.08 0.08 0.12 0.18 0.17 0.18 0.16 0.21 0.25 0.23 0.17 0.09 0.05 0.04 0.03 0.03 0.04 0.04 0.05 0.04 0.04 0.05 0.04 0.03
0.09 0.07 0.06 0.07 0.08 0.10 0.11 0.09 0.08 0.09 0.12 0.17 0.16 0.11 0.12 0.09 0.07 0.07 0.08 0.09 0.09 0.19 0.23 0.15 0.15 0.20 0.25 0.28 0.26 0.18 0.10 0.05 0.04 0.03 0.03 0.03 0.04 0.04 0.04 0.04 0.06 0.06 0.06
0.08 0.05 0.06 0.07 0.08 0.10 0.08 0.07 0.07 0.06 0.08 0.09 0.09 0.07 0.07 0.07 0.06 0.07 0.09 0.09 0.08 0.10 0.12 0.10 0.14 0.17 0.21 0.23 0.22 0.20 0.11 0.07 0.06 0.05 0.06 0.04 0.04 0.03 0.03 0.04 0.04 0.05 0.06
0.07 0.06 0.06 0.06 0.06 0.07 0.08 0.08 0.05 0.05 0.04 0.03 0.03 0.03 0.04 0.05 0.07 0.09 0.09 0.08 0.07 0.06 0.06 0.09 0.13 0.15 0.19 0.20 0.24 0.22 0.14 0.10 0.07 0.06 0.07 0.05 0.05 0.04 0.04 0.04 0.04 0.04 0.04
0.08 0.07 0.05 0.04 0.05 0.06 0.06 0.06 0.04 0.03 0.03 0.02 0.03 0.04 0.04 0.05 0.07 0.08 0.08 0.08 0.07 0.06 0.08 0.10 0.10 0.13 0.15 0.16 0.21 0.23 0.17 0.11 0.07 0.06 0.06 0.05 0.04 0.03 0.03 0.04 0.05 0.05 0.04
0.07 0.07 0.06 0.04 0.05 0.06 0.06 0.06 0.04 0.03 0.03 0.02 0.03 0.03 0.03 0.05 0.07 0.07 0.07 0.08 0.07 0.08 0.10 0.11 0.10 0.09 0.10 0.11 0.14 0.17 0.17 0.13 0.08 0.07 0.07 0.07 0.06 0.04 0.03 0.03 0.05 0.05 0.05
0.04 0.04 0.04 0.04 0.06 0.07 0.06 0.06 0.05 0.04 0.03 0.02 0.02 0.02 0.02 0.03 0.05 0.07 0.07 0.08 0.09 0.10 0.12 0.12 0.10 0.08 0.09 0.08 0.09 0.11 0.11 0.10 0.08 0.08 0.09 0.07 0.06 0.05 0.05 0.04 0.03 0.04 0.05
0.03 0.02 0.02 0.03 0.04 0.05 0.05 0.05 0.05 0.04 0.04 0.03 0.02 0.03 0.03 0.03 0.04 0.06 0.07 0.09 0.11 0.11 0.11 0.10 0.11 0.09 0.10 0.08 0.07 0.08 0.08 0.08 0.09 0.10 0.08 0.06 0.06 0.05 0.07 0.06 0.04 0.04 0.06
0.02 0.02 0.02 0.03 0.04 0.05 0.06 0.08 0.07 0.07 0.06 0.05 0.05 0.04 0.04 0.04 0.04 0.07 0.09 0.10 0.10 0.11 0.12 0.12 0.13 0.11 0.11 0.09 0.07 0.09 0.09 0.07 0.06 0.06 0.05 0.06 0.07 0.06 0.07 0.05 0.05 0.04 0.07
0.01 0.01 0.02 0.04 0.05 0.06 0.09 0.11 0.13 0.13 0.11 0.07 0.05 0.04 0.04 0.04 0.06 0.09 0.08 0.12 0.10 0.11 0.12 0.11 0.12 0.12 0.11 0.10 0.11 0.12 0.11 0.08 0.06 0.05 0.05 0.06 0.06 0.07 0.08 0.07 0.07 0.08 0.12
0.00 0.01 0.02 0.03 0.04 0.05 0.08 0.13 0.15 0.15 0.10 0.06 0.05 0.06 0.05 0.04 0.05 0.08 0.11 0.10 0.10 0.11 0.11 0.11 0.12 0.11 0.09 0.09 0.11 0.12 0.11 0.11 0.10 0.07 0.05 0.05 0.05 0.07 0.08 0.07 0.10 0.13 0.15
0.00 0.01 0.02 0.04 0.04 0.05 0.05 0.07 0.11 0.10 0.07 0.05 0.04 0.05 0.04 0.02 0.03 0.06 0.09 0.09 0.09 0.10 0.11 0.11 0.10 0.10 0.11 0.11 0.10 0.10 0.10 0.11 0.10 0.08 0.06 0.06 0.08 0.10 0.10 0.10 0.11 0.13 0.13
0.00 0.00 0.01 0.03 0.04 0.04 0.04 0.04 0.05 0.08 0.08 0.06 0.04 0.05 0.04 0.02 0.01 0.03 0.06 0.07 0.08 0.09 0.10 0.08 0.08 0.08 0.10 0.10 0.11 0.09 0.08 0.10 0.09 0.08 0.09 0.09 0.10 0.10 0.10 0.10 0.11 0.16 0.15
0.00 0.00 0.01 0.02 0.03 0.03 0.02 0.03 0.04 0.04 0.05 0.05 0.04 0.05 0.04 0.03 0.02 0.02 0.05 0.07 0.09 0.09 0.09 0.09 0.10 0.07 0.07 0.08 0.10 0.09 0.10 0.10 0.10 0.10 0.11 0.12 0.13 0.11 0.09 0.10 0.14 0.14 0.10
0.00 0.00 0.00 0.01 0.01 0.01 0.01 0.02 0.03 0.05 0.05 0.05 0.06 0.07 0.05 0.04 0.03 0.02 0.04 0.08 0.10 0.11 0.10 0.09 0.08 0.08 0.07 0.07 0.07 0.08 0.09 0.10 0.11 0.12 0.13 0.11 0.10 0.09 0.09 0.09 0.10 0.13 0.12
MSLP
1004.77 1004.66 1004.78 1005.12 1005.60 1006.15 1006.69 1007.13 1007.48 1007.74 1007.96 1008.22 1008.57 1009.03 1009.59 1010.23 1010.87 1011.48 1012.00 1012.44 1012.79 1013.10 1013.38 1013.67 1013.97 1014.27 1014.54 1014.76 1014.91 1015.01 1015.06 1015.12 1015.20 1015.33 1015.51 1015.73 1015.94 1016.13 1016.25 1016.31 1016.32 1016.31 1016.31
1004.48 1004.49 1004.74 1005.21 1005.80 1006.43 1006.99 1007.43 1007.75 1007.98 1008.19 1008.45 1008.83 1009.34 1009.96 1010.64 1011.33 1011.95 1012.48 1012.90 1013.23 1013.51 1013.77 1014.04 1014.32 1014.59 1014.85 1015.05 1015.19 1015.28 1015.34 1015.40 1015.50 1015.66 1015.86 1016.10 1016.33 1016.52 1016.65 1016.70 1016.70 1016.68 1016.68
1003.82 1003.94 1004.36 1004.99 1005.75 1006.50 1007.14 1007.64 1007.98 1008.22 1008.44 1008.71 1009.11 1009.64 1010.28 1010.98 1011.68 1012.30 1012.82 1013.23 1013.55 1013.82 1014.07 1014.33 1014.60 1014.86 1015.10 1015.28 1015.41 1015.49 1015.56 1015.63 1015.76 1015.95 1016.19 1016.45 1016.71 1016.92 1017.05 1017.12 1017.13 1017.12 1017.13
1002.81 1003.06 1003.65 1004.48 1005.42 1006.35 1007.14 1007.74 1008.16 1008.45 1008.70 1009.00 1009.41 1009.94 1010.58 1011.26 1011.94 1012.55 1013.06 1013.46 1013.78 1014.06 1014.32 1014.59 1014.86 1015.12 1015.34 1015.51 1015.61 1015.68 1015.75 1015.84 1015.99 1016.21 1016.49 1016.79 1017.07 1017.31 1017.47 1017.56 1017.59 1017.61 1017.64
1001.60 1001.97 1002.72 1003.75 1004.90 1006.02 1006.98 1007.73 1008.27 1008.66 1008.97 1009.31 1009.73 1010.26 1010.87 1011.53 1012.17 1012.75 1013.24 1013.65 1013.99 1014.29 1014.59 1014.88 1015.16 1015.42 1015.62 1015.75 1015.83 1015.88 1015.94 1016.03 1016.20 1016.46 1016.77 1017.11 1017.42 1017.69 1017.87 1017.99 1018.05 1018.10 1018.17
1000.42 1000.88 1001.77 1002.98 1004.31 1005.62 1006.76 1007.67 1008.36 1008.86 1009.26 1009.65 1010.10 1010.62 1011.20 1011.82 1012.42 1012.96 1013.44 1013.85 1014.22 1014.56 1014.90 1015.22 1015.52 1015.77 1015.94 1016.04 1016.09 1016.10 1016.14 1016.23 1016.42 1016.69 1017.04 1017.40 1017.75 1018.04 1018.25 1018.39 1018.48 1018.55 1018.66
999.51 1000.03 1001.02 1002.35 1003.82 1005.27 1006.57 1007.63 1008.45 1009.08 1009.58 1010.04 1010.51 1011.03 1011.59 1012.17 1012.72 1013.24 1013.70 1014.12 1014.51 1014.90 1015.27 1015.62 1015.93 1016.16 1016.31 1016.36 1016.36 1016.34 1016.34 1016.43 1016.62 1016.92 1017.29 1017.69 1018.06 1018.36 1018.58 1018.73 1018.83 1018.92 1019.04
999.10 999.65 1000.68 1002.06 1003.60 1005.13 1006.51 1007.67 1008.60 1009.33 1009.93 1010.46 1010.98 1011.51 1012.05 1012.59 1013.11 1013.60 1014.04 1014.47 1014.88 1015.29 1015.68 1016.05 1016.35 1016.57 1016.67 1016.68 1016.63 1016.56 1016.55 1016.62 1016.82 1017.14 1017.53 1017.95 1018.34 1018.65 1018.87 1019.01 1019.10 1019.19 1019.31
999.36 999.90 1000.92 1002.27 1003.78 1005.29 1006.67 1007.86 1008.83 1009.63 1010.29 1010.89 1011.45 1012.01 1012.55 1013.08 1013.57 1014.02 1014.45 1014.86 1015.28 1015.69 1016.09 1016.46 1016.74 1016.92 1016.98 1016.95 1016.85 1016.75 1016.72 1016.79 1017.00 1017.34 1017.76 1018.20 1018.60 1018.91 1019.12 1019.24 1019.31 1019.37 1019.47
1000.30 1000.81 1001.75 1002.99 1004.38 1005.78 1007.06 1008.19 1009.14 1009.95 1010.66 1011.30 1011.90 1012.49 1013.04 1013.56 1014.04 1014.47 1014.87 1015.27 1015.67 1016.07 1016.45 1016.79 1017.04 1017.18 1017.21 1017.13 1017.00 1016.88 1016.84 1016.93 1017.16 1017.52 1017.96 1018.42 1018.84 1019.15 1019.35 1019.45 1019.49 1019.51 1019.58
1001.81 1002.27 1003.10 1004.18 1005.37 1006.56 1007.66 1008.65 1009.52 1010.28 1010.98 1011.64 1012.28 1012.89 1013.47 1014.00 1014.47 1014.89 1015.27 1015.64 1016.00 1016.37 1016.72 1017.02 1017.23 1017.33 1017.32 1017.21 1017.07 1016.95 1016.91 1017.01 1017.26 1017.65 1018.12 1018.61 1019.04 1019.36 1019.56 1019.65 1019.66 1019.65 1019.67
1003.72 1004.12 1004.80 1005.67 1006.61 1007.54 1008.41 1009.19 1009.91 1010.58 1011.24 1011.89 1012.55 1013.19 1013.79 1014.34 1014.81 1015.22 1015.59 1015.93 1016.26 1016.58 1016.89 1017.14 1017.31 1017.38 1017.34 1017.22 1017.07 1016.95 1016.93 1017.05 1017.32 1017.73 1018.22 1018.73 1019.18 1019.53 1019.74 1019.83 1019.83 1019.80 1019.80
1005.78 1006.12 1006.65 1007.29 1007.96 1008.61 1009.21 1009.76 1010.30 1010.84 1011.43 1012.05 1012.70 1013.36 1013.99 1014.56 1015.05 1015.46 1015.82 1016.14 1016.44 1016.72 1016.97 1017.18 1017.32 1017.36 1017.30 1017.18 1017.04 1016.93 1016.92 1017.05 1017.32 1017.74 1018.24 1018.76 1019.23 1019.60 1019.84 1019.96 1019.98 1019.96 1019.94
1007.76 1008.04 1008.42 1008.85 1009.27 1009.65 1010.00 1010.33 1010.68 1011.08 1011.57 1012.15 1012.78 1013.44 1014.08 1014.67 1015.18 1015.61 1015.97 1016.27 1016.55 1016.80 1017.02 1017.19 1017.30 1017.32 1017.26 1017.15 1017.01 1016.91 1016.89 1017.01 1017.27 1017.66 1018.14 1018.66 1019.14 1019.54 1019.82 1019.99 1020.06 1020.07 1020.06
1009.48 1009.71 1009.97 1010.23 1010.44 1010.60 1010.73 1010.87 1011.06 1011.34 1011.73 1012.24 1012.84 1013.48 1014.13 1014.73 1015.25 1015.69 1016.06 1016.36 1016.63 1016.86 1017.06 1017.21 1017.30 1017.32 1017.26 1017.15 1017.02 1016.91 1016.88 1016.95 1017.16 1017.50 1017.94 1018.41 1018.88 1019.30 1019.62 1019.85 1019.99 1020.06 1020.10
1010.84 1011.02 1011.20 1011.33 1011.40 1011.42 1011.41 1011.42 1011.49 1011.67 1011.98 1012.41 1012.96 1013.56 1014.18 1014.77 1015.30 1015.75 1016.12 1016.43 1016.70 1016.93 1017.12 1017.26 1017.35 1017.38 1017.33 1017.23 1017.09 1016.97 1016.89 1016.91 1017.03 1017.28 1017.62 1018.03 1018.46 1018.87 1019.23 1019.51 1019.72 1019.86 1019.96
1011.84 1011.98 1012.10 1012.16 1012.16 1012.11 1012.04 1011.99 1012.00 1012.11 1012.35 1012.72 1013.19 1013.73 1014.30 1014.86 1015.37 1015.82 1016.19 1016.51 1016.78 1017.01 1017.21 1017.36 1017.46 1017.50 1017.46 1017.37 1017.23 1017.08 1016.96 1016.89 1016.91 1017.04 1017.26 1017.57 1017.92 1018.29 1018.65 1018.97 1019.23 1019.44 1019.61
1012.53 1012.64 1012.72 1012.76 1012.76 1012.71 1012.65 1012.60 1012.61 1012.69 1012.88 1013.17 1013.56 1014.02 1014.52 1015.02 1015.49 1015.91 1016.28 1016.60 1016.87 1017.11 1017.32 1017.48 1017.60 1017.65 1017.64 1017.56 1017.43 1017.26 1017.08 1016.94 1016.84 1016.83 1016.92 1017.09 1017.33 1017.62 1017.94 1018.26 1018.56 1018.82 1019.04
1012.98 1013.06 1013.13 1013.18 1013.22 1013.23 1013.23 1013.24 1013.28 1013.37 1013.53 1013.76 1014.06 1014.42 1014.82 1015.24 1015.65 1016.03 1016.38 1016.69 1016.97 1017.21 1017.42 1017.60 1017.73 1017.81 1017.83 1017.78 1017.66 1017.49 1017.28 1017.06 1016.87 1016.73 1016.66 1016.68 1016.78 1016.97 1017.21 1017.49 1017.78 1018.06 1018.31
1013.27 1013.32 1013.39 1013.47 1013.56 1013.66 1013.76 1013.86 1013.96 1014.08 1014.22 1014.40 1014.62 1014.88 1015.18 1015.50 1015.83 1016.16 1016.48 1016.77 1017.04 1017.28 1017.50 1017.69 1017.84 1017.95 1018.00 1017.98 1017.90 1017.75 1017.53 1017.28 1017.01 1016.76 1016.56 1016.43 1016.38 1016.42 1016.55 1016.74 1016.98 1017.24 1017.49
1013.43 1013.46 1013.52 1013.63 1013.79 1013.98 1014.18 1014.38 1014.56 1014.72 1014.86 1015.00 1015.15 1015.32 1015.51 1015.74 1016.00 1016.27 1016.54 1016.81 1017.07 1017.31 1017.52 1017.71 1017.88 1018.02 1018.11 1018.14 1018.11 1018.01 1017.82 1017.58 1017.27 1016.95 1016.64 1016.38 1016.18 1016.07 1016.05 1016.12 1016.27 1016.46 1016.69
1013.48 1013.49 1013.55 1013.68 1013.89 1014.15 1014.45 1014.74 1015.00 1015.21 1015.36 1015.47 1015.56 1015.65 1015.76 1015.91 1016.10 1016.32 1016.55 1016.80 1017.04 1017.27 1017.48 1017.67 1017.85 1018.00 1018.14 1018.23 1018.26 1018.23 1018.11 1017.90 1017.61 1017.26 1016.88 1016.51 1016.18 1015.92 1015.75 1015.68 1015.70 1015.81 1015.97
1013.39 1013.40 1013.45 1013.59 1013.83 1014.15 1014.52 1014.88 1015.21 1015.46 1015.63 1015.73 1015.78 1015.81 1015.86 1015.95 1016.09 1016.27 1016.49 1016.71 1016.94 1017.15 1017.35 1017.54 1017.71 1017.89 1018.05 1018.20 1018.30 1018.35 1018.32 1018.18 1017.95 1017.62 1017.22 1016.78 1016.35 1015.96 1015.65 1015.43 1015.32 1015.31 1015.39
1013.16 1013.17 1013.23 1013.38 1013.63 1013.98 1014.39 1014.81 1015.18 1015.47 1015.65 1015.75 1015.78 1015.79 1015.80 1015.85 1015.96 1016.12 1016.32 1016.54 1016.76 1016.96 1017.15 1017.32 1017.49 1017.66 1017.84 1018.03 1018.20 1018.33 1018.38 1018.34 1018.19 1017.91 1017.53 1017.08 1016.59 1016.11 1015.68 1015.33 1015.09 1014.97 1014.95
1012.76 1012.82 1012.89 1013.04 1013.31 1013.67 1014.11 1014.55 1014.95 1015.27 1015.47 1015.57 1015.59 1015.58 1015.57 1015.61 1015.70 1015.85 1016.05 1016.27 1016.49 1016.69 1016.86 1017.01 1017.16 1017.32 1017.50 1017.70 1017.92 1018.11 1018.26 1018.31 1018.25 1018.06 1017.73 1017.30 1016.79 1016.26 1015.75 1015.30 1014.96 1014.73 1014.62
1012.22 1012.33 1012.44 1012.62 1012.90 1013.28 1013.72 1014.18 1014.60 1014.93 1015.14 1015.24 1015.26 1015.23 1015.22 1015.24 1015.33 1015.48 1015.69 1015.92 1016.14 1016.34 1016.50 1016.62 1016.74 1016.87 1017.03 1017.23 1017.46 1017.70 1017.91 1018.05 1018.08 1017.97 1017.72 1017.35 1016.87 1016.33 1015.78 1015.28 1014.85 1014.54 1014.35
Thickness
5799 5798 5797 5797 5796 5796 5796 5796 5795 5794 5793 5792 5791 5790 5789 5787 5786 5785 5784 5782 5780 5779 5777 5776 5774 5773 5771 5770 5769 5768 5766 5765 5764 5763 5762 5760 5759 5757 5756 5755 5754 5752 5750
5801 5798 5796 5796 5795 5795 5794 5794 5794 5793 5792 5791 5790 5789 5787 5786 5785 5783 5782 5780 5779 5777 5776 5774 5773 5772 5770 5769 5768 5766 5765 5764 5763 5762 5761 5759 5757 5756 5755 5755 5754 5751 5750
5802 5798 5796 5795 5795 5794 5793 5793 5793 5792 5791 5790 5789 5788 5787 5786 5784 5782 5781 5779 5778 5776 5774 5773 5771 5770 5769 5768 5766 5765 5764 5763 5762 5761 5760 5759 5757 5755 5754 5753 5752 5750 5749
5804 5800 5797 5794 5793 5793 5792 5792 5792 5791 5790 5789 5788 5787 5786 5785 5783 5782 5780 5778 5777 5775 5773 5772 5770 5769 5768 5767 5765 5764 5763 5763 5761 5761 5760 5760 5757 5754 5753 5752 5751 5749 5748
5805 5800 5796 5794 5793 5792 5792 5791 5791 5789 5788 5788 5787 5786 5785 5784 5783 5781 5779 5777 5775 5774 5772 5770 5769 5768 5767 5766 5765 5764 5763 5762 5761 5760 5761 5759 5756 5754 5752 5751 5750 5748 5747
5806 5802 5796 5794 5792 5792 5791 5791 5790 5789 5787 5786 5786 5785 5784 5783 5782 5780 5778 5776 5775 5773 5771 5770 5769 5768 5767 5766 5765 5764 5763 5762 5761 5761 5760 5758 5756 5753 5752 5750 5749 5747 5746
5809 5804 5798 5794 5793 5792 5791 5790 5789 5788 5787 5786 5786 5785 5784 5783 5781 5780 5778 5776 5774 5773 5771 5770 5769 5768 5767 5766 5765 5764 5763 5762 5761 5761 5761 5758 5756 5753 5751 5750 5748 5747 5746
5811 5806 5799 5795 5793 5792 5791 5790 5789 5787 5787 5786 5785 5784 5783 5782 5781 5779 5778 5776 5774 5773 5771 5770 5769 5768 5767 5766 5765 5764 5763 5762 5762 5762 5760 5757 5754 5752 5751 5749 5748 5747 5745
5813 5807 5802 5797 5794 5793 5791 5790 5789 5788 5786 5786 5784 5783 5782 5781 5780 5779 5777 5775 5774 5773 5772 5771 5769 5768 5766 5765 5764 5763 5763 5762 5762 5762 5760 5757 5754 5752 5751 5749 5748 5746 5745
5812 5809 5805 5801 5798 5795 5792 5791 5790 5788 5787 5786 5785 5783 5782 5781 5780 5779 5777 5776 5775 5774 5772 5771 5770 5768 5766 5765 5764 5763 5763 5763 5763 5762 5759 5757 5754 5752 5751 5749 5748 5746 5745
5808 5808 5807 5803 5800 5798 5796 5793 5791 5789 5788 5787 5786 5784 5784 5783 5781 5779 5778 5776 5775 5774 5772 5771 5769 5768 5766 5765 5764 5764 5764 5764 5764 5762 5759 5757 5754 5752 5751 5750 5748 5747 5745
5803 5806 5807 5805 5803 5800 5799 5795 5794 5792 5789 5788 5787 5786 5785 5785 5783 5781 5779 5777 5776 5774 5772 5771 5770 5768 5767 5766 5765 5764 5765 5766 5766 5763 5759 5757 5755 5753 5751 5750 5749 5747 5746
5805 5805 5806 5805 5803 5802 5799 5797 5796 5794 5792 5791 5789 5788 5787 5786 5784 5782 5780 5777 5776 5775 5773 5772 5771 5770 5769 5768 5767 5766 5767 5768 5767 5764 5760 5758 5756 5754 5752 5751 5749 5747 5746
5804 5804 5805 5805 5803 5801 5800 5798 5797 5796 5794 5793 5791 5790 5789 5787 5786 5785 5782 5781 5779 5778 5776 5774 5773 5772 5772 5770 5769 5768 5769 5769 5768 5765 5761 5758 5756 5754 5753 5751 5750 5748 5746
5804 5803 5803 5803 5801 5800 5799 5798 5798 5797 5796 5794 5792 5790 5790 5788 5787 5785 5784 5783 5782 5780 5778 5776 5775 5774 5772 5771 5770 5770 5769 5769 5768 5765 5762 5759 5757 5755 5754 5752 5750 5748 5747
5805 5804 5804 5803 5801 5800 5799 5798 5798 5797 5796 5795 5793 5791 5790 5788 5787 5786 5784 5783 5782 5781 5779 5777 5776 5774 5772 5772 5771 5770 5769 5768 5767 5765 5762 5759 5757 5756 5754 5752 5751 5749 5748
5806 5805 5805 5804 5802 5800 5799 5799 5799 5798 5797 5795 5793 5792 5791 5789 5787 5786 5784 5783 5782 5781 5780 5778 5776 5775 5772 5772 5770 5771 5770 5769 5768 5766 5763 5761 5758 5756 5754 5752 5751 5750 5749
5808 5805 5805 5806 5803 5801 5800 5800 5800 5799 5797 5796 5794 5793 5791 5789 5788 5787 5785 5783 5783 5781 5779 5777 5776 5773 5771 5770 5769 5770 5770 5769 5768 5766 5764 5762 5760 5758 5755 5753 5751 5750 5749
5810 5807 5806 5806 5803 5802 5801 5800 5799 5798 5797 5796 5795 5794 5792 5790 5789 5787 5785 5783 5783 5781 5779 5778 5775 5772 5769 5768 5768 5769 5769 5769 5768 5766 5765 5764 5762 5760 5757 5754 5752 5751 5749
5813 5809 5807 5806 5804 5803 5801 5799 5799 5798 5797 5797 5795 5794 5792 5791 5789 5787 5785 5783 5782 5780 5778 5776 5773 5772 5770 5768 5769 5768 5769 5770 5769 5767 5766 5766 5764 5761 5758 5756 5753 5751 5750
5813 5810 5807 5804 5803 5802 5799 5797 5795 5794 5795 5796 5795 5794 5792 5790 5789 5787 5785 5783 5781 5779 5776 5775 5772 5769 5768 5769 5765 5762 5765 5770 5769 5768 5767 5765 5764 5762 5760 5758 5754 5753 5751
5814 5811 5808 5805 5804 5802 5801 5799 5797 5796 5796 5796 5795 5793 5792 5791 5789 5788 5784 5782 5780 5778 5776 5774 5772 5768 5767 5769 5763 5757 5753 5757 5763 5768 5766 5764 5763 5761 5759 5758 5756 5754 5752
5817 5813 5811 5808 5806 5804 5803 5801 5798 5797 5795 5794 5792 5791 5791 5791 5789 5787 5785 5782 5780 5778 5775 5773 5772 5768 5764 5767 5767 5759 5750 5746 5752 5760 5762 5762 5761 5759 5757 5757 5755 5753 5751
5822 5819 5815 5810 5807 5805 5804 5800 5796 5791 5789 5790 5791 5791 5791 5790 5788 5786 5784 5782 5779 5778 5775 5774 5773 5771 5767 5763 5764 5765 5762 5758 5749 5747 5754 5758 5759 5757 5755 5755 5755 5753 5749
5827 5822 5817 5812 5808 5806 5804 5801 5797 5793 5792 5792 5792 5791 5789 5789 5788 5786 5784 5781 5779 5777 5775 5774 5772 5770 5768 5764 5762 5762 5761 5759 5757 5748 5744 5749 5752 5754 5755 5755 5754 5751 5749
5830 5825 5819 5813 5808 5806 5803 5801 5797 5794 5792 5790 5789 5787 5787 5787 5787 5786 5784 5781 5779 5777 5775 5773 5771 5769 5767 5765 5764 5762 5759 5755 5753 5750 5746 5745 5746 5750 5754 5754 5752 5750 5748